Volver al catálogo

SBIRS GEO 5

USA 315

ActivoMilitarGEO
NORAD 48618·PAYLOAD·🇺🇸 United States

Lanzado May 18, 2021 desde Cape Canaveral Space Force Station

Loading…

TLE

ActualizadoSource: Space-Track

Época: Sep 14, 2026, 14:14 UTC

1 48618U 21042A   26257.59373442 -.00000276  00000-0  00000-0 0  9991
2 48618   4.9983 329.8235 0001786 205.2368 126.0457  1.00272144 19660

Sigue SBIRS GEO 5 en tiempo real con AllMySat

Download on the App Store